Погода в Сале

Латвия     56°21′39″N   27°11′23″E
темп.,
°C
ветер,
м/с
пор.,
м/с
влажн.,
%
обл.,
%
осадки,
мм/ч
давл.,
гПа
погр.,
м
5 декабря, вс
вс523:00−4юв119889 0.2 100822
02:00−5всв129876 0.4 100855
05:00−6св259676 0.1 1009148
08:00−7св369586 0.2 1011219
11:00−7св369094 0.1 1013289
14:00−7св3590100 0.1 1014358
17:00−10св389490 0.1 1016285
20:00−11св389494 0.1 1017275
6 декабря, пн
пн623:00−12св3893100 0.1 1018234
02:00−12св3793100 0.1 1018219
05:00−12св3792100 0.1 1018223
08:00−12св3692100 0.3 1018210
11:00−10св358998 0.2 1018225
14:00−8св3489100 0.3 1017249
17:00−10св269687 0.0 1017197
20:00−10ссв259599 0.1 1016159
7 декабря, вт
вт723:00−9ссв249399 0.4 1015161
02:00−9с259594 0.5 1014177
05:00−9с269573 0.2 1013204
08:00−10с369472 0.3 1013212
11:00−9с359096 0.1 1014238
14:00−9с3692100 0.1 1014297
17:00−11с3797100 0.1 1015245
20:00−13с279895 0.1 1016192
8 декабря, ср
ср823:00−14ссз269982 0.0 1017130
02:00−15ссз259979 0.0 101896
05:00−15с159997 0.0 101987
08:00−14с249995 0.1 102083
11:00−11ссв259373 0.0 1021156
14:00−10ссв25905 0.0 1021238
17:00−13ссв269866 0.0 102294
20:00−14св279991 0.0 1022147
9 декабря, чт
чт923:00−14св289999 0.0 1023161
02:00−14св299998 0.1 1023179
05:00−14св399899 0.0 1022207
08:00−14св3109897 0.1 1022217
11:00−12св3109276 0.0 1022263
14:00−11св3109019 0.0 1022323
17:00−13св4119537 0.0 1022262
20:00−13св3109551 0.0 1023233